TimeCEST,TemperatureF,Dew PointF,Humidity,Sea Level PressureIn,VisibilityMPH,Wind Direction,Wind SpeedMPH,Gust SpeedMPH,PrecipitationIn,Events,Conditions,WindDirDegrees,DateUTC
12:00 AM,37.4,35.6,93,29.62,2.5,NE,10.4,-,N/A,Rain,Light Rain,40,2012-10-26 22:00:00
12:30 AM,37.4,37.4,100,29.62,-9999.0,NNE,9.2,-,N/A,Rain,Light Rain,30,2012-10-26 22:30:00
1:00 AM,37.4,35.6,93,29.59,1.8,NNE,9.2,-,N/A,Rain,Light Rain,30,2012-10-26 23:00:00
1:30 AM,37.4,35.6,93,29.56,1.9,NNE,9.2,-,N/A,Rain,Light Rain,20,2012-10-26 23:30:00
2:00 AM,37,36,95,29.60,2,NNE,8.9,,,Rain,Light Rain,30,2012-10-27 00:00:00
2:00 AM,37.4,35.6,93,29.56,2.2,NNE,9.2,-,N/A,Rain,Light Rain,30,2012-10-27 00:00:00
2:30 AM,37.4,35.6,93,29.53,3.1,NE,10.4,-,N/A,Rain,Light Rain,40,2012-10-27 00:30:00
3:00 AM,37.4,37.4,100,29.50,3.7,NNE,8.1,-,N/A,Rain,Light Rain,30,2012-10-27 01:00:00
3:30 AM,37.4,37.4,100,29.47,3.7,NNE,8.1,-,N/A,Rain,Light Rain,30,2012-10-27 01:30:00
4:00 AM,37.4,35.6,93,29.47,2.5,NNE,8.1,-,N/A,Rain,Light Rain,20,2012-10-27 02:00:00
4:30 AM,37.4,35.6,93,29.44,-9999.0,North,8.1,-,N/A,Rain,Light Rain,10,2012-10-27 02:30:00
5:00 AM,37.4,35.6,93,29.44,2.8,North,6.9,-,N/A,Rain,Light Rain,10,2012-10-27 03:00:00
5:30 AM,37.4,35.6,93,29.42,3.7,North,6.9,-,N/A,Rain,Light Rain,360,2012-10-27 03:30:00
6:00 AM,37.4,37.4,100,29.39,3.1,North,9.2,-,N/A,Rain,Light Rain,10,2012-10-27 04:00:00
6:30 AM,37.4,35.6,93,29.39,2.8,NNE,8.1,-,N/A,Rain,Light Rain,20,2012-10-27 04:30:00
7:00 AM,37.4,35.6,93,29.36,2.8,North,8.1,-,N/A,Rain,Light Rain,10,2012-10-27 05:00:00
7:30 AM,37.4,35.6,93,29.36,2.8,North,8.1,-,N/A,Rain,Rain,10,2012-10-27 05:30:00
8:00 AM,37,36,95,29.39,2,North,8.9,,,Rain,Light Rain,10,2012-10-27 06:00:00
8:00 AM,37.4,35.6,93,29.36,2.5,North,6.9,-,N/A,Rain,Light Rain,10,2012-10-27 06:00:00
8:30 AM,37.4,35.6,93,29.33,2.5,North,9.2,-,N/A,Rain,Light Rain,360,2012-10-27 06:30:00
9:00 AM,37.4,35.6,93,29.33,3.1,North,9.2,-,N/A,Rain,Light Rain,360,2012-10-27 07:00:00
9:30 AM,37.4,35.6,93,29.33,3.1,North,9.2,-,N/A,Rain,Light Rain,360,2012-10-27 07:30:00
10:00 AM,37.4,35.6,93,29.33,3.1,North,8.1,-,N/A,Rain,Light Rain,360,2012-10-27 08:00:00
10:30 AM,37.4,35.6,93,29.30,3.1,North,9.2,-,N/A,Rain,Light Rain,10,2012-10-27 08:30:00
11:00 AM,37.4,35.6,93,29.30,3.1,NNE,9.2,-,N/A,Rain,Light Rain,20,2012-10-27 09:00:00
11:30 AM,37.4,35.6,93,29.30,3.1,North,9.2,-,N/A,Rain,Light Rain,360,2012-10-27 09:30:00
12:00 PM,37.4,35.6,93,29.30,2.8,North,9.2,-,N/A,Rain,Light Rain,360,2012-10-27 10:00:00
12:30 PM,37.4,35.6,93,29.30,2.8,North,9.2,-,N/A,Rain,Light Rain,10,2012-10-27 10:30:00
1:00 PM,35.6,35.6,100,29.27,2.8,North,11.5,-,N/A,Rain,Light Rain,10,2012-10-27 11:00:00
1:30 PM,35.6,33.8,93,29.27,2.8,North,10.4,-,N/A,Rain,Light Rain,360,2012-10-27 11:30:00
2:00 PM,36,35,93,29.32,3,North,11.2,,,Rain,Light Rain,10,2012-10-27 12:00:00
2:00 PM,35.6,33.8,93,29.27,2.8,North,10.4,-,N/A,Rain,Light Rain,360,2012-10-27 12:00:00
2:30 PM,35.6,33.8,93,29.27,2.8,North,10.4,-,N/A,Rain,Light Rain,10,2012-10-27 12:30:00
3:00 PM,35.6,33.8,93,29.27,3.7,North,11.5,-,N/A,Rain,Light Rain,360,2012-10-27 13:00:00
3:30 PM,35.6,33.8,93,29.30,3.7,North,10.4,-,N/A,Rain,Light Rain,360,2012-10-27 13:30:00
4:00 PM,35.6,33.8,93,29.30,3.1,North,11.5,-,N/A,Rain,Light Rain,360,2012-10-27 14:00:00
4:30 PM,33.8,32.0,93,29.30,3.1,North,10.4,-,N/A,Rain,Light Rain,360,2012-10-27 14:30:00
5:00 PM,33.8,32.0,93,29.33,3.7,North,10.4,-,N/A,Rain,Light Rain,360,2012-10-27 15:00:00
5:30 PM,33.8,32.0,93,29.36,4.3,North,10.4,-,N/A,Rain,Light Rain,360,2012-10-27 15:30:00
6:00 PM,33.8,30.2,87,29.36,3.7,North,9.2,-,N/A,Rain,Light Rain,350,2012-10-27 16:00:00
6:30 PM,33.8,30.2,87,29.39,5.6,NNW,9.2,-,N/A,Rain-Snow,Light Rain,340,2012-10-27 16:30:00
7:00 PM,33.8,30.2,87,29.42,5.6,North,10.4,-,N/A,Snow,Light Snow,350,2012-10-27 17:00:00
7:30 PM,32.0,30.2,93,29.42,3.7,North,10.4,-,N/A,Snow,Light Snow,350,2012-10-27 17:30:00
8:00 PM,33,30,84,29.49,6,North,11.2,,,Snow,Light Snow,350,2012-10-27 18:00:00
8:00 PM,32.0,30.2,93,29.44,6.2,North,12.7,-,N/A,Snow,Light Snow,350,2012-10-27 18:00:00
8:30 PM,32.0,30.2,93,29.44,6.2,North,11.5,-,N/A,Snow,Light Snow,360,2012-10-27 18:30:00
9:00 PM,32.0,30.2,93,29.47,6.2,North,15.0,-,N/A,Snow,Light Snow,360,2012-10-27 19:00:00
9:30 PM,32.0,30.2,93,29.47,6.2,North,13.8,-,N/A,Snow,Light Snow,360,2012-10-27 19:30:00
10:00 PM,32.0,30.2,93,29.50,6.2,North,13.8,-,N/A,Snow,Light Snow,360,2012-10-27 20:00:00
10:30 PM,32.0,30.2,93,29.50,6.2,North,13.8,-,N/A,Snow,Light Snow,360,2012-10-27 20:30:00
11:00 PM,32.0,30.2,93,29.53,6.2,North,13.8,-,N/A,Snow,Light Snow,360,2012-10-27 21:00:00
11:30 PM,32.0,30.2,93,29.53,6.2,North,16.1,-,N/A,Snow,Light Snow,10,2012-10-27 21:30:00